| time (UTC) | temp F | wind direction | speed knots | gust knots | rain 1hr in | rain 24hr in | rain mn in | humidity % | barometer mb |
| 20260905190539 | 78 | 44 | 3.5 | 6.1 | 0.00 | 0.00 | 0.00 | 63 | 1011.5 |
| 20260905185517 | 77 | 38 | 1.7 | 5.2 | 0.00 | 0.00 | 0.00 | 63 | 1011.7 |
| 20260905184532 | 77 | 47 | 3.5 | 7.8 | 0.00 | 0.00 | 0.00 | 64 | 1011.7 |
| 20260905183529 | 77 | 43 | 1.7 | 6.1 | 0.00 | 0.00 | 0.00 | 64 | 1011.6 |
| 20260905182526 | 77 | 30 | 1.7 | 5.2 | 0.00 | 0.00 | 0.00 | 64 | 1011.7 |
| 20260905181523 | 77 | 26 | 2.6 | 6.1 | 0.00 | 0.00 | 0.00 | 64 | 1011.8 |
| 20260905180520 | 77 | 40 | 1.7 | 6.1 | 0.00 | 0.00 | 0.00 | 65 | 1011.8 |
| 20260905175516 | 77 | 34 | 1.7 | 7.8 | 0.00 | 0.00 | 0.00 | 66 | 1011.9 |
| 20260905174530 | 77 | 46 | 3.5 | 7.0 | 0.00 | 0.00 | 0.00 | 65 | 1011.8 |
| 20260905173525 | 76 | 37 | 1.7 | 3.5 | 0.00 | 0.00 | 0.00 | 64 | 1011.7 |
| 20260905172520 | 76 | 44 | 2.6 | 7.0 | 0.00 | 0.00 | 0.00 | 65 | 1011.9 |
| 20260905171515 | 77 | 40 | 2.6 | 7.8 | 0.00 | 0.00 | 0.00 | 64 | 1012.0 |
| 20260905170532 | 76 | 29 | 1.7 | 6.1 | 0.00 | 0.00 | 0.00 | 65 | 1012.0 |
| 20260905165529 | 76 | 44 | 2.6 | 5.2 | 0.00 | 0.00 | 0.00 | 67 | 1011.9 |
| 20260905164527 | 76 | 42 | 2.6 | 7.0 | 0.00 | 0.00 | 0.00 | 67 | 1011.9 |
| 20260905163523 | 76 | 31 | 1.7 | 7.0 | 0.00 | 0.00 | 0.00 | 68 | 1012.1 |
| 20260905162519 | 76 | 26 | 2.6 | 7.0 | 0.00 | 0.00 | 0.00 | 69 | 1012.0 |
| 20260905161516 | 75 | 40 | 1.7 | 6.1 | 0.00 | 0.00 | 0.00 | 70 | 1012.0 |
| 20260905160534 | 75 | 31 | 1.7 | 7.0 | 0.00 | 0.00 | 0.00 | 72 | 1012.0 |
| 20260905155530 | 74 | 35 | 0.9 | 3.5 | 0.00 | 0.00 | 0.00 | 74 | 1011.9 |
| 20260905154527 | 74 | 39 | 2.6 | 5.2 | 0.00 | 0.00 | 0.00 | 75 | 1011.8 |
| 20260905153604 | 73 | 45 | 1.7 | 6.1 | 0.00 | 0.00 | 0.00 | 75 | 1011.9 |
| 20260905152520 | 73 | 41 | 1.7 | 5.2 | 0.00 | 0.00 | 0.00 | 76 | 1011.7 |
| 20260905151517 | 72 | 28 | 1.7 | 6.1 | 0.00 | 0.01 | 0.00 | 77 | 1011.8 |
| 20260905150534 | 71 | 28 | 0.9 | 2.6 | 0.00 | 0.02 | 0.00 | 77 | 1011.7 |
| 20260905145531 | 71 | 27 | 0.9 | 3.5 | 0.00 | 0.04 | 0.00 | 78 | 1011.5 |
| 20260905144528 | 71 | 28 | 0.9 | 2.6 | 0.00 | 0.04 | 0.00 | 78 | 1011.5 |
| 20260905143525 | 70 | 37 | 0.9 | 5.2 | 0.00 | 0.04 | 0.00 | 78 | 1011.6 |
| 20260905142522 | 70 | 23 | 1.7 | 5.2 | 0.00 | 0.04 | 0.00 | 78 | 1011.6 |
| 20260905141519 | 70 | 33 | 0.9 | 6.1 | 0.00 | 0.05 | 0.00 | 78 | 1011.3 |
| 20260905140521 | 70 | 32 | 0.9 | 6.1 | 0.00 | 0.05 | 0.00 | 78 | 1011.7 |
| 20260905135533 | 69 | 35 | 0.9 | 5.2 | 0.00 | 0.08 | 0.00 | 79 | 1011.4 |
| 20260905134530 | 69 | 79 | 1.7 | 6.1 | 0.00 | 0.09 | 0.00 | 79 | 1011.3 |
| 20260905133547 | 69 | 88 | 1.7 | 7.0 | 0.00 | 0.10 | 0.00 | 79 | 1011.3 |
| 20260905132546 | 69 | 88 | 1.7 | 3.5 | 0.00 | 0.10 | 0.00 | 79 | 1011.5 |
| 20260905131521 | 69 | 89 | 1.7 | 3.5 | 0.00 | 0.10 | 0.00 | 79 | 1011.5 |
| 20260905130538 | 69 | 89 | 0.9 | 3.5 | 0.00 | 0.11 | 0.00 | 79 | 1011.6 |
| 20260905125534 | 69 | 93 | 0.9 | 5.2 | 0.00 | 0.11 | 0.00 | 79 | 1011.4 |
| 20260905124531 | 69 | 94 | 1.7 | 2.6 | 0.00 | 0.11 | 0.00 | 80 | 1011.3 |
| 20260905123528 | 69 | 97 | 0.0 | 1.7 | 0.00 | 0.11 | 0.00 | 80 | 1011.3 |
| 20260905122525 | 69 | 97 | 1.7 | 5.2 | 0.00 | 0.11 | 0.00 | 80 | 1011.3 |
| 20260905121522 | 68 | 97 | 0.9 | 3.5 | 0.00 | 0.11 | 0.00 | 81 | 1011.2 |
| 20260905120519 | 68 | 96 | 1.7 | 6.1 | 0.00 | 0.11 | 0.00 | 81 | 1011.3 |
| 20260905115516 | 68 | 97 | 1.7 | 5.2 | 0.00 | 0.11 | 0.00 | 82 | 1011.2 |
| 20260905114613 | 68 | 97 | 1.7 | 3.5 | 0.00 | 0.11 | 0.00 | 82 | 1011.1 |
| 20260905113532 | 68 | 98 | 0.9 | 5.2 | 0.00 | 0.11 | 0.00 | 82 | 1011.0 |
| 20260905112527 | 68 | 98 | 1.7 | 3.5 | 0.00 | 0.11 | 0.00 | 82 | 1011.0 |
| 20260905111524 | 68 | 135 | 1.7 | 5.2 | 0.00 | 0.11 | 0.00 | 83 | 1011.0 |
| 20260905110521 | 68 | 111 | 1.7 | 5.2 | 0.00 | 0.11 | 0.00 | 83 | 1010.9 |
| 20260905105518 | 69 | 113 | 2.6 | 7.8 | 0.00 | 0.11 | 0.00 | 83 | 1011.0 |
| 20260905104537 | 69 | 118 | 0.9 | 2.6 | 0.00 | 0.11 | 0.00 | 84 | 1011.1 |
| 20260905103532 | 69 | 115 | 2.6 | 6.1 | 0.00 | 0.11 | 0.00 | 84 | 1011.0 |
| 20260905102529 | 69 | 117 | 0.0 | 2.6 | 0.00 | 0.11 | 0.00 | 84 | 1010.9 |
| 20260905101526 | 69 | 123 | 1.7 | 5.2 | 0.00 | 0.11 | 0.00 | 84 | 1010.8 |
| 20260905100523 | 69 | 126 | 1.7 | 5.2 | 0.00 | 0.11 | 0.00 | 84 | 1010.8 |
| 20260905095520 | 69 | 240 | 0.9 | 3.5 | 0.00 | 0.11 | 0.00 | 84 | 1011.1 |
| 20260905094517 | 69 | 241 | 0.0 | 1.7 | 0.00 | 0.11 | 0.00 | 84 | 1011.1 |
| 20260905093534 | 69 | 240 | 0.0 | 0.9 | 0.00 | 0.11 | 0.00 | 84 | 1010.9 |
| 20260905092532 | 69 | 196 | 0.0 | 1.7 | 0.00 | 0.11 | 0.00 | 84 | 1010.8 |
| 20260905091527 | 69 | 172 | 0.0 | 1.7 | 0.00 | 0.11 | 0.00 | 84 | 1010.8 |
| 20260905090524 | 69 | 171 | 0.9 | 2.6 | 0.00 | 0.11 | 0.00 | 84 | 1010.5 |
| 20260905085521 | 69 | 38 | 0.0 | 0.9 | 0.00 | 0.11 | 0.00 | 84 | 1010.3 |
| 20260905084518 | 69 | 17 | 1.7 | 5.2 | 0.00 | 0.11 | 0.00 | 84 | 1010.0 |
| 20260905083515 | 69 | 44 | 1.7 | 7.0 | 0.00 | 0.11 | 0.00 | 85 | 1009.9 |
| 20260905082532 | 69 | 27 | 1.7 | 6.1 | 0.00 | 0.11 | 0.00 | 85 | 1010.3 |
| 20260905081529 | 69 | 71 | 0.9 | 6.1 | 0.00 | 0.11 | 0.00 | 85 | 1010.3 |
| 20260905080526 | 69 | 115 | 0.9 | 3.5 | 0.00 | 0.11 | 0.00 | 85 | 1010.3 |
| 20260905075522 | 69 | 121 | 0.0 | 1.7 | 0.00 | 0.11 | 0.00 | 85 | 1010.4 |
| 20260905074520 | 69 | 112 | 0.9 | 2.6 | 0.00 | 0.11 | 0.00 | 86 | 1010.4 |
| 20260905073516 | 69 | 117 | 0.9 | 2.6 | 0.00 | 0.11 | 0.00 | 86 | 1010.7 |
| 20260905072533 | 69 | 119 | 0.9 | 2.6 | 0.00 | 0.11 | 0.00 | 86 | 1010.2 |
| 20260905071530 | 69 | 108 | 0.9 | 2.6 | 0.00 | 0.11 | 0.00 | 86 | 1010.0 |
| 20260905070547 | 70 | 90 | 0.9 | 5.2 | 0.00 | 0.11 | 0.00 | 86 | 1009.8 |
| 20260905065544 | 70 | 92 | 0.9 | 2.6 | 0.00 | 0.11 | 0.00 | 86 | 1009.9 |
| 20260905064520 | 70 | 90 | 0.9 | 5.2 | 0.00 | 0.11 | 0.00 | 86 | 1009.9 |
| 20260905063517 | 70 | 90 | 0.9 | 2.6 | 0.00 | 0.11 | 0.00 | 87 | 1010.1 |
| 20260905062534 | 70 | 87 | 0.9 | 3.5 | 0.00 | 0.11 | 0.00 | 87 | 1010.3 |
| 20260905061531 | 70 | 86 | 0.9 | 5.2 | 0.00 | 0.11 | 0.00 | 87 | 1010.5 |
| 20260905060528 | 70 | 90 | 0.9 | 1.7 | 0.00 | 0.11 | 0.00 | 87 | 1010.7 |
| 20260905055525 | 70 | 93 | 0.0 | 1.7 | 0.00 | 0.11 | 0.00 | 87 | 1010.7 |
| 20260905054521 | 70 | 91 | 0.0 | 1.7 | 0.00 | 0.11 | 0.00 | 87 | 1010.4 |
| 20260905053518 | 70 | 89 | 0.9 | 2.6 | 0.00 | 0.11 | 0.00 | 87 | 1010.3 |
| 20260905052557 | 70 | 89 | 0.9 | 1.7 | 0.00 | 0.11 | 0.00 | 87 | 1010.3 |
| 20260905051532 | 70 | 89 | 0.9 | 2.6 | 0.00 | 0.11 | 0.00 | 86 | 1010.5 |
| 20260905050529 | 70 | 89 | 0.0 | 2.6 | 0.00 | 0.11 | 0.00 | 86 | 1010.7 |
| 20260905045526 | 71 | 87 | 0.0 | 1.7 | 0.00 | 0.11 | 0.00 | 86 | 1010.8 |
| 20260905044524 | 71 | 88 | 0.0 | 0.9 | 0.00 | 0.11 | 0.00 | 86 | 1010.7 |
| 20260905043519 | 71 | 88 | 0.0 | 1.7 | 0.00 | 0.11 | 0.00 | 86 | 1010.7 |
| 20260905042516 | 71 | 92 | 0.0 | 0.9 | 0.00 | 0.11 | 0.00 | 86 | 1010.8 |
| 20260905041613 | 71 | 91 | 0.0 | 1.7 | 0.00 | 0.11 | 0.00 | 86 | 1010.8 |
| 20260905040549 | 71 | 91 | 0.0 | 0.9 | 0.00 | 0.11 | 0.00 | 86 | 1011.0 |
| 20260905035528 | 71 | 91 | 0.0 | 1.7 | 0.00 | 0.11 | 0.11 | 86 | 1010.9 |
| 20260905034523 | 71 | 91 | 0.0 | 1.7 | 0.00 | 0.11 | 0.11 | 86 | 1011.2 |
| 20260905033520 | 71 | 89 | 0.9 | 3.5 | 0.00 | 0.11 | 0.11 | 86 | 1011.3 |
| 20260905032516 | 72 | 85 | 1.7 | 3.5 | 0.00 | 0.11 | 0.11 | 86 | 1011.4 |
| 20260905031554 | 72 | 92 | 0.0 | 1.7 | 0.00 | 0.11 | 0.11 | 86 | 1011.2 |
| 20260905030531 | 72 | 91 | 0.9 | 1.7 | 0.00 | 0.11 | 0.11 | 86 | 1011.1 |
| 20260905025527 | 72 | 85 | 0.9 | 2.6 | 0.00 | 0.11 | 0.11 | 86 | 1011.2 |
| 20260905024524 | 72 | 85 | 1.7 | 6.1 | 0.00 | 0.11 | 0.11 | 86 | 1011.3 |
| 20260905023601 | 73 | 93 | 0.9 | 1.7 | 0.00 | 0.11 | 0.11 | 86 | 1011.2 |
| 20260905022518 | 73 | 94 | 0.0 | 0.9 | 0.00 | 0.11 | 0.11 | 86 | 1011.1 |
| 20260905021535 | 73 | 92 | 0.9 | 1.7 | 0.00 | 0.11 | 0.11 | 86 | 1011.1 |
| 20260905020532 | 73 | 92 | 0.0 | 1.7 | 0.00 | 0.11 | 0.11 | 86 | 1011.3 |
| 20260905015529 | 73 | 92 | 0.0 | 1.7 | 0.00 | 0.11 | 0.11 | 86 | 1011.2 |
| 20260905014526 | 73 | 92 | 0.0 | 1.7 | 0.00 | 0.11 | 0.11 | 86 | 1011.3 |
| 20260905013523 | 73 | 95 | 0.0 | 1.7 | 0.00 | 0.11 | 0.11 | 85 | 1011.1 |
| 20260905012520 | 73 | 96 | 0.9 | 1.7 | 0.00 | 0.11 | 0.11 | 85 | 1011.1 |
| 20260905011516 | 73 | 96 | 0.9 | 1.7 | 0.00 | 0.11 | 0.11 | 85 | 1011.0 |
| 20260905010533 | 73 | 93 | 0.9 | 2.6 | 0.00 | 0.11 | 0.11 | 85 | 1010.9 |
| 20260905005530 | 74 | 89 | 0.9 | 3.5 | 0.00 | 0.11 | 0.11 | 85 | 1010.9 |
| 20260905004527 | 74 | 97 | 0.9 | 2.6 | 0.00 | 0.11 | 0.11 | 84 | 1011.0 |
| 20260905003524 | 74 | 98 | 0.9 | 3.5 | 0.00 | 0.11 | 0.11 | 84 | 1010.9 |
| 20260905002521 | 75 | 95 | 1.7 | 5.2 | 0.00 | 0.11 | 0.11 | 83 | 1010.8 |
| 20260905001538 | 76 | 108 | 2.6 | 6.1 | 0.00 | 0.11 | 0.11 | 83 | 1010.6 |
| 20260905000535 | 76 | 105 | 1.7 | 5.2 | 0.00 | 0.11 | 0.11 | 83 | 1010.6 |
| 20260904235613 | 76 | 120 | 0.0 | 0.9 | 0.00 | 0.11 | 0.11 | 83 | 1010.5 |
| 20260904234549 | 76 | 117 | 0.0 | 1.7 | 0.00 | 0.11 | 0.11 | 82 | 1010.5 |
| 20260904233526 | 77 | 118 | 0.0 | 0.9 | 0.00 | 0.11 | 0.11 | 82 | 1010.3 |
| 20260904232522 | 77 | 122 | 0.0 | 1.7 | 0.00 | 0.11 | 0.11 | 81 | 1010.1 |
| 20260904231519 | 77 | 120 | 0.9 | 3.5 | 0.00 | 0.11 | 0.11 | 81 | 1010.0 |
| 20260904230518 | 77 | 119 | 1.7 | 3.5 | 0.00 | 0.11 | 0.11 | 80 | 1009.8 |
| 20260904225533 | 78 | 244 | 0.0 | 1.7 | 0.00 | 0.11 | 0.11 | 80 | 1009.9 |
| 20260904224550 | 78 | 243 | 0.0 | 1.7 | 0.00 | 0.11 | 0.11 | 80 | 1009.8 |
| 20260904223527 | 78 | 243 | 0.9 | 1.7 | 0.00 | 0.11 | 0.11 | 80 | 1009.7 |
| 20260904222524 | 78 | 243 | 0.9 | 2.6 | 0.00 | 0.11 | 0.11 | 79 | 1009.6 |
| 20260904221521 | 78 | 243 | 0.9 | 2.6 | 0.00 | 0.11 | 0.11 | 79 | 1009.7 |
| 20260904220518 | 78 | 240 | 1.7 | 3.5 | 0.00 | 0.11 | 0.11 | 79 | 1009.7 |
| 20260904215535 | 78 | 243 | 1.7 | 5.2 | 0.00 | 0.11 | 0.11 | 80 | 1009.6 |
| 20260904214532 | 78 | 243 | 0.9 | 2.6 | 0.00 | 0.11 | 0.11 | 80 | 1009.6 |
| 20260904213529 | 78 | 243 | 2.6 | 5.2 | 0.00 | 0.11 | 0.11 | 80 | 1009.4 |
| 20260904212526 | 78 | 242 | 2.6 | 5.2 | 0.00 | 0.11 | 0.11 | 82 | 1009.1 |
| 20260904211523 | 78 | 244 | 2.6 | 7.0 | 0.00 | 0.11 | 0.11 | 83 | 1009.1 |
| 20260904210520 | 78 | 242 | 1.7 | 5.2 | 0.00 | 0.11 | 0.11 | 83 | 1009.0 |
| 20260904205557 | 78 | 242 | 3.5 | 7.0 | 0.00 | 0.11 | 0.11 | 84 | 1009.0 |
| 20260904204534 | 77 | 240 | 1.7 | 5.2 | 0.00 | 0.13 | 0.11 | 85 | 1008.9 |
| 20260904203530 | 77 | 242 | 3.5 | 7.0 | 0.00 | 0.15 | 0.11 | 86 | 1008.9 |
| 20260904202527 | 77 | 237 | 2.6 | 6.1 | 0.00 | 0.16 | 0.11 | 87 | 1009.0 |
| 20260904201546 | 77 | 241 | 1.7 | 5.2 | 0.00 | 0.24 | 0.11 | 87 | 1009.1 |
| 20260904200541 | 77 | 239 | 2.6 | 5.2 | 0.00 | 0.24 | 0.11 | 88 | 1009.3 |
| 20260904195518 | 77 | 235 | 3.5 | 6.1 | 0.00 | 0.24 | 0.11 | 89 | 1009.4 |
| 20260904194536 | 77 | 239 | 3.5 | 6.1 | 0.00 | 0.24 | 0.11 | 89 | 1009.6 |
| 20260904193532 | 76 | 238 | 3.5 | 6.1 | 0.00 | 0.24 | 0.11 | 90 | 1009.7 |
| 20260904192528 | 76 | 234 | 3.5 | 8.7 | 0.00 | 0.24 | 0.11 | 91 | 1009.9 |
| 20260904191526 | 77 | 226 | 2.6 | 6.1 | 0.00 | 0.24 | 0.11 | 92 | 1010.0 |